Weather at N'Gaoundéré Airport

Public forecast

Using degrees Celsius for public forecast. Weather courtesy of forecast.io.

Current aviation weather report (METAR) for N'Gaoundéré Airport

Report is more than 6 hours old.

Retrieved 2022/01/18 07:00 UTC (11 days ago):

FKKN 180700Z 04006KT 7000 NSC 15/03 Q1022

Aviation forecast (TAF) for N'Gaoundéré Airport

Forecast is more than 12 hours old.

Retrieved 2020/01/06 12:21 UTC (2 years ago):

TAF FKKN 061100Z 0612/0624 34007KT 2000 DU NSC TEMPO 0618/0624 1000 HZ